Overview Statistics Trail Chart Weather Telemetry Raw packets
 

This is the latest recevied weather packets stored in our database for station/object N5CSU. If no packets are shown the sender has not sent any weather packets the latest 10 day(s).

<< 8 9 10 11 12 13 14 >>
Time Temp. Humidity Pressure Rain* Wind** Luminosity Snow
1788562825 36.11° C 47% 1011.2 hPa 0 mm - 15 W/m² -
1788562522 36.11° C 47% 1011.1 hPa 0 mm - 18 W/m² -
1788562221 35.56° C 47% 1011.3 hPa 0 mm - 18 W/m² -
1788561917 36.11° C 47% 1011.3 hPa 0 mm - 16 W/m² -
1788561617 36.11° C 47% 1011.4 hPa 0 mm - 19 W/m² -
1788561316 35.56° C 48% 1011.4 hPa 0 mm - 22 W/m² -
1788561012 35.56° C 48% 1011.4 hPa 0 mm - 20 W/m² -
1788560708 36.11° C 47% 1011.5 hPa 0 mm - 16 W/m² -
1788560408 36.67° C 47% 1011.6 hPa 0 mm - 14 W/m² -
1788560102 36.67° C 47% 1011.4 hPa 0 mm - 16 W/m² -
1788559797 36.67° C 46% 1011.4 hPa 0 mm - 22 W/m² -
1788559496 36.11° C 46% 1011.5 hPa 0 mm - 124 W/m² -
1788559192 36.67° C 45% 1011.4 hPa 0 mm - 20 W/m² -
1788558887 36.67° C 45% 1011.5 hPa 0 mm - 65 W/m² -
1788558583 36.11° C 47% 1011.6 hPa 0 mm - 25 W/m² -
1788558278 36.11° C 47% 1011.7 hPa 0 mm - 22 W/m² -
1788557973 36.11° C 45% 1011.8 hPa 0 mm - 19 W/m² -
1788557666 36.11° C 46% 1011.7 hPa 0 mm - 26 W/m² -
1788557363 36.11° C 45% 1011.6 hPa 0 mm - 20 W/m² -
1788557062 36.67° C 45% 1011.9 hPa 0 mm - 17 W/m² -
1788556758 36.67° C 44% 1012 hPa 0 mm - 21 W/m² -
1788556453 36.11° C 46% 1011.8 hPa 0 mm - 22 W/m² -
1788556148 36.67° C 46% 1012 hPa 0 mm - 15 W/m² -
1788555847 36.67° C 44% 1012 hPa 0 mm - 13 W/m² -
1788555543 37.22° C 44% 1012.1 hPa 0 mm - 19 W/m² -

* Rain latest hour (hover to see other rain measurements)
** Current wind speed in m/s (hover to see current wind gust speed)